Weather History for Augusta, ME

Change the Weather History Date:

Saturday, August 30, 2014

  Actual Average Record
Temperature  
Mean Temperature 62 °F 66 °F  
Max Temperature 72 °F 76 °F 89 °F (2010)
Min Temperature 52 °F 56 °F 48 °F (2001)
Degree Days  
Heating Degree Days 3 2  
Month to date heating degree days 17 23  
Since 1 June heating degree days 95 133  
Since 1 July heating degree days 19 39  
Cooling Degree Days 0 3  
Month to date cooling degree days 85 124  
Year to date cooling degree days 309 354  
Since 1 June cooling degree days 309 345  
Growing Degree Days 12 (Base 50)    
Moisture  
Dew Point 55 °F    
Average Humidity 79    
Maximum Humidity 97    
Minimum Humidity 61    
Precipitation  
Precipitation 0.00 in 0.10 in 0.43 in (1997)
Month to date precipitation 5.10 3.21  
Year to date precipitation 30.50 26.08  
Sea Level Pressure  
Sea Level Pressure 30.20 in    
Wind  
Wind Speed 8 mph (South)    
Max Wind Speed 16 mph    
Max Gust Speed 26 mph    
Visibility 10 miles    
Events      
T = Trace of Precipitation, MM = Missing Value Source: NWS Daily Summary

Daily Weather History Graph

Daily Weather History Graph

Search for Another Location

Airport:

Trip Planner

Search our weather history database for the weather conditions in past years. The results will help you decide how hot, cold, wet, or windy it might be!

Date:

Astronomy

Aug. 30, 2014 Rise Set
Actual Time 5:59 AM EDT 7:19 PM EDT
Civil Twilight 5:29 AM EDT 7:49 PM EDT
Nautical Twilight 4:53 AM EDT 8:25 PM EDT
Astronomical Twilight 4:14 AM EDT 9:03 PM EDT
Moon 10:56 AM EDT (8/30) 9:38 PM EDT (8/30)
Length of Visible Light 14h 19m
Length of Day
13h 19m
Waxing Crescent, 23% of the Moon is Illuminated
Aug 30
Waxing Crescent
Sep 2
First Quarter
Sep 8
Full
Sep 15
Last Quarter
Sep 24
New

Hourly Weather History & Observations

Time (EDT) Temp. Dew Point Humidity Pressure Visibility Wind Dir Wind Speed Gust Speed Precip Events Conditions
12:53 AM 54.0 °F 48.9 °F 83% 30.28 in 10.0 mi SSW 5.8 mph - N/A   Clear
1:53 AM 54.0 °F 50.0 °F 86% 30.27 in 10.0 mi South 4.6 mph - N/A   Clear
2:53 AM 53.1 °F 50.0 °F 89% 30.28 in 10.0 mi South 4.6 mph - N/A   Clear
3:53 AM 53.6 °F 50.0 °F 88% 30.27 in 10.0 mi SSW 4.6 mph - N/A   Partly Cloudy
4:53 AM 53.1 °F 50.0 °F 89% 30.27 in 10.0 mi SSW 5.8 mph - N/A   Clear
5:53 AM 53.1 °F 50.0 °F 89% 30.27 in 10.0 mi South 5.8 mph - N/A   Clear
6:53 AM 54.0 °F 51.1 °F 90% 30.28 in 10.0 mi SSW 8.1 mph - N/A   Clear
7:53 AM 55.9 °F 53.1 °F 90% 30.27 in 10.0 mi South 8.1 mph - N/A   Clear
8:53 AM 60.1 °F 55.0 °F 83% 30.27 in 10.0 mi SSW 9.2 mph 18.4 mph N/A   Clear
9:53 AM 64.9 °F 57.0 °F 75% 30.26 in 10.0 mi SSW 9.2 mph - N/A   Clear
10:53 AM 68.0 °F 57.9 °F 70% 30.25 in 10.0 mi Variable 4.6 mph - N/A   Clear
11:53 AM 71.1 °F 57.9 °F 63% 30.24 in 10.0 mi SW 9.2 mph - N/A   Clear
12:53 PM 70.0 °F 57.0 °F 63% 30.22 in 10.0 mi South 10.4 mph 20.7 mph N/A   Mostly Cloudy
1:08 PM 71.1 °F 57.9 °F 63% 30.21 in 10.0 mi South 8.1 mph 17.3 mph N/A   Mostly Cloudy
1:15 PM 71.1 °F 57.9 °F 63% 30.21 in 10.0 mi SSW 5.8 mph 18.4 mph N/A   Scattered Clouds
1:53 PM 70.0 °F 59.0 °F 68% 30.20 in 10.0 mi South 6.9 mph 18.4 mph N/A   Scattered Clouds
2:14 PM 70.0 °F 59.0 °F 68% 30.19 in 10.0 mi South 12.7 mph 18.4 mph N/A   Mostly Cloudy
2:29 PM 71.1 °F 59.0 °F 66% 30.18 in 10.0 mi Variable 6.9 mph 19.6 mph N/A   Scattered Clouds
2:41 PM 70.0 °F 57.9 °F 65% 30.18 in 10.0 mi South 10.4 mph 19.6 mph N/A   Mostly Cloudy
2:50 PM 69.8 °F 57.2 °F 64% 30.17 in 10.0 mi South 11.5 mph 23.0 mph N/A   Scattered Clouds
2:53 PM 70.0 °F 57.9 °F 65% 30.17 in 10.0 mi South 15.0 mph 23.0 mph N/A   Partly Cloudy
3:53 PM 70.0 °F 59.0 °F 68% 30.16 in 10.0 mi South 10.4 mph 23.0 mph N/A   Partly Cloudy
4:53 PM 69.1 °F 55.9 °F 63% 30.15 in 10.0 mi SSW 9.2 mph 21.9 mph N/A   Clear
5:53 PM 66.9 °F 55.0 °F 66% 30.14 in 10.0 mi South 8.1 mph - N/A   Clear
6:53 PM 64.0 °F 53.1 °F 67% 30.13 in 10.0 mi South 8.1 mph - N/A   Clear
7:53 PM 61.0 °F 53.1 °F 75% 30.13 in 10.0 mi South 9.2 mph - N/A   Clear
8:53 PM 61.0 °F 55.0 °F 81% 30.12 in 10.0 mi South 8.1 mph - N/A   Clear
9:53 PM 60.1 °F 57.0 °F 90% 30.11 in 10.0 mi South 5.8 mph - N/A   Clear
10:53 PM 60.8 °F 57.2 °F 88% 30.10 in 10.0 mi SSW 8.1 mph - N/A   Clear
11:53 PM 61.0 °F 59.0 °F 93% 30.09 in 10.0 mi South 8.1 mph - N/A   Clear